Location: Wiesbaden
(50.0830°N, 8.2500°E)
Time: 06:07:09
(UTC+01:00)

ISS - Pass Details

Date: 20 February 2020
Orbit: 415 x 423 km, 51.6° (Epoch: 27 February)

Event Time Altitude Azimuth Distance (km) Brightness Sun altitude
Rises 06:40:37 0° 190° (S) 2,355 0.0 -8.5°
Reaches altitude 10° 06:43:58 10° 154° (SSE) 1,500 -0.4 -8.0°
Maximum altitude 06:45:01 11° 135° (SE) 1,433 -0.2 -7.8°
Drops below altitude 10° 06:46:05 10° 117° (ESE) 1,504 0.4 -7.7°
Sets 06:49:28 0° 81° (E) 2,376 1.8 -7.1°
